Location: Bednik
(45.3500°N, 16.3833°E)
Time: 05:29:38
(UTC+00:00)

Cosmos 2360 - Pass Details

Date: 08 August 2020
Orbit: 844 x 858 km, 70.8° (Epoch: 19 September)

Event Time Altitude Azimuth Distance (km) Brightness Sun altitude
Rises 19:35:29 0° 335° (NNW) 3,442 8.6 -13.3°
Reaches altitude 10° 19:37:59 10° 338° (NNW) 2,502 7.7 -13.6°
Maximum altitude 19:43:43 67° 61° (ENE) 928 4.3 -14.4°
Enters shadow 19:47:29 22° 140° (SE) 1,786 5.3 -14.9°
